This is the latest recevied weather packets stored in our database for station/object AA8FM-13. If no packets are shown the sender has not sent any weather packets the latest 10 day(s).
| Time | Temp. | Humidity | Pressure | Rain* | Wind** | Luminosity | Snow |
|---|---|---|---|---|---|---|---|
| 1777918713 | 20.56° C | 55% | 1007.7 hPa | 0 mm | - | 569 W/m² | - |
| 1777918411 | 20.56° C | 54% | 1007.8 hPa | 0 mm | - | 677 W/m² | - |
| 1777918110 | 20° C | 55% | 1007.7 hPa | 0 mm | - | 687 W/m² | - |
| 1777917808 | 20° C | 56% | 1007.7 hPa | 0 mm | - | 668 W/m² | - |
| 1777917506 | 20° C | 56% | 1007.9 hPa | 0 mm | - | 700 W/m² | - |
| 1777917202 | 20.56° C | 55% | 1008 hPa | 0 mm | - | 691 W/m² | - |
| 1777916901 | 20° C | 56% | 1007.9 hPa | 0 mm | - | 678 W/m² | - |
| 1777916597 | 19.44° C | 56% | 1008.1 hPa | 0 mm | - | 677 W/m² | - |
| 1777916294 | 20° C | 56% | 1008.1 hPa | 0 mm | - | 681 W/m² | - |
| 1777915991 | 20° C | 58% | 1008.1 hPa | 0 mm | - | 675 W/m² | - |
| 1777915688 | 19.44° C | 55% | 1008.2 hPa | 0 mm | - | 680 W/m² | - |
| 1777915385 | 19.44° C | 55% | 1008.1 hPa | 0 mm | - | 644 W/m² | - |
| 1777915080 | 19.44° C | 56% | 1008.4 hPa | 0 mm | - | 679 W/m² | - |
| 1777914778 | 19.44° C | 57% | 1008.3 hPa | 0 mm | - | 686 W/m² | - |
| 1777914475 | 18.89° C | 57% | 1008.5 hPa | 0 mm | - | 571 W/m² | - |
| 1777914172 | 18.89° C | 58% | 1008.5 hPa | 0 mm | - | 576 W/m² | - |
| 1777913868 | 20° C | 57% | 1008.8 hPa | 0 mm | - | 415 W/m² | - |
| 1777913565 | 20° C | 57% | 1008.7 hPa | 0 mm | - | 301 W/m² | - |
| 1777913261 | 20° C | 57% | 1008.8 hPa | 0 mm | - | 684 W/m² | - |
| 1777912958 | 19.44° C | 56% | 1009 hPa | 0 mm | - | 697 W/m² | - |
| 1777912654 | 18.89° C | 60% | 1008.8 hPa | 0 mm | - | 679 W/m² | - |
| 1777912350 | 18.89° C | 57% | 1008.7 hPa | 0 mm | - | 687 W/m² | - |
| 1777912046 | 19.44° C | 55% | 1009.2 hPa | 0 mm | - | 691 W/m² | - |
| 1777911742 | 18.89° C | 57% | 1009 hPa | 0 mm | - | 229 W/m² | - |
| 1777911440 | 17.78° C | 58% | 1009.3 hPa | 0 mm | - | 535 W/m² | - |
* Rain latest hour (hover to see other rain measurements)
** Current wind speed in m/s (hover to see current wind gust speed)